Back to catalog

STARLINK-4617

AliveCommunicationsSSO
NORAD 53675·PAYLOAD·🇺🇸 United States

Launched Aug 31, 2022 from Vandenberg Space Force Base

Loading…

Next Passes (next 24 hours)

TLE

FreshSource: CelesTrak SupGP

Epoch: Sep 14, 2026, 13:17 UTC

1 53675C 22105AD  26257.55395833  .00060455  00000+0  18766-2 0  2575
2 53675  97.2841 134.4276 0001653  85.7876 261.5448 15.33408924    12

Track STARLINK-4617 in real time with AllMySat

Download on the App Store